Location: ??????
(41.3164°N, 22.6615°E)
Time: 10:36:35
(UTC+00:00)

YAOGAN 1 - Pass Details

Date: 16 October 2021
Orbit: 618 x 620 km, 97.9° (Epoch: 02 December)

Event Time Altitude Azimuth Distance (km) Brightness Sun altitude
Rises 18:00:53 0° 192° (SSW) 2,881 6.0 -25.9°
Reaches altitude 10° 18:03:17 10° 203° (SSW) 1,980 5.3 -26.3°
Maximum altitude 18:07:02 29° 264° (W) 1,145 4.5 -27.0°
Drops below altitude 10° 18:10:50 10° 325° (NW) 1,995 5.7 -27.7°
Sets 18:13:16 0° 336° (NNW) 2,906 6.5 -28.1°
